Regional Weather Roundup
Issued by NWS

Home | Current Version | Previous Version | Graphics & Text | Print | Product List | Glossary On
Versions: 1 2 3 4 5 6 7 8 9 10 11 12 13 14 15 16 17 18 19 20 21 22 23 24 25 26 27
000
ASUS45 KCYS 250210
RWRWY

WYOMING REGIONAL WEATHER ROUNDUP
NATIONAL WEATHER SERVICE CHEYENNE WY
800 PM MDT MON JUL 24 2017

NOTE:  "FAIR" INDICATES FEW OR NO CLOUDS BELOW 12,000 FEET
WITH NO SIGNIFICANT WEATHER AND/OR OBSTRUCTIONS TO VISIBILITY.

WYZ001-250300-
YELLOWSTONE NATIONAL PARK

CITY           SKY/WX    TMP DP  RH WIND       PRES   REMARKS
LK YELLOWSTONE   N/A     59  47  64 CALM      30.29F
W YELLOWSTONE  NOT AVBL

$$
WYZ002>013-054>058-071-098>099-250300-
NORTHERN WYOMING

CITY           SKY/WX    TMP DP  RH WIND       PRES   REMARKS
JACKSON        CLEAR     79  41  25 N13       30.12R
CODY           FAIR      77  43  29 NW14G25   30.02R
GREYBULL       FAIR      92  32  12 N26G35    29.83R
WORLAND        FAIR      93  41  16 N6        29.82R
SHERIDAN       FAIR      86  48  26 NE7       29.88S
BUFFALO        FAIR      84  41  21 NW7       29.97R
GILLETTE       FAIR      88  43  20 NE16      29.90R
HULETT         FAIR      90  37  15 NE5       29.91R
NEWCASTLE      FAIR      90  32  12 NE6       29.88S

$$
WYZ014>020-022>026-101>103-250300-
CENTRAL WYOMING

CITY           SKY/WX    TMP DP  RH WIND       PRES   REMARKS
BIG PINEY      FAIR      71  47  42 W8        30.17R
PINEDALE       FAIR      77  34  20 SE3       30.18R
DUBOIS         FAIR      75  30  19 N9        30.16R
LANDER         FAIR      84  33  16 SW10      30.00R
RIVERTON       FAIR      88  32  13 SW6       29.98R
CASPER         FAIR      87  34  15 SW3       29.97S
DOUGLAS        FAIR      85  36  17 SW7       29.95S

$$
WYZ021-027>030-104>119-250300-
SOUTHERN WYOMING

CITY           SKY/WX    TMP DP  RH WIND       PRES   REMARKS
EVANSTON       FAIR      80  42  25 W12       30.16R
KEMMERER         N/A     73  37  27 N10       30.18S
FORT BRIDGER   FAIR      80  40  23 S6        30.18R
ROCK SPRINGS   FAIR      80  33  18 SW6       30.13S
RAWLINS        FAIR      83  34  17 W7        30.13R
SARATOGA       CLOUDY    81  36  19 CALM      30.16R
LARAMIE        FAIR      73  41  31 SE7       30.19R
CHEYENNE       FAIR      85  36  17 W3        30.09S
TORRINGTON     FAIR      88  50  27 SE7       29.88S
PINE BLUFFS    FAIR      84  37  18 W6        30.00S

$$




USA.gov is the U.S. government's official web portal to all federal, state and local government web resources and services.